TimeBST,TemperatureF,Dew PointF,Humidity,Sea Level PressureIn,VisibilityMPH,Wind Direction,Wind SpeedMPH,Gust SpeedMPH,PrecipitationIn,Events,Conditions,WindDirDegrees,DateUTC
12:20 AM,50.0,46.4,87,29.80,6.2,WSW,13.8,-,N/A,,Scattered Clouds,250,2013-10-13 23:20:00
12:50 AM,49,46,83,29.78,11,WSW,13.8,,,,Scattered Clouds,250,2013-10-13 23:50:00
12:50 AM,50.0,46.4,87,29.77,6.2,West,13.8,-,N/A,,Scattered Clouds,260,2013-10-13 23:50:00
1:20 AM,48.2,46.4,93,29.77,6.2,West,13.8,-,N/A,Rain,Light Rain,270,2013-10-14 00:20:00
1:50 AM,48.2,46.4,93,29.77,6.2,West,12.7,-,N/A,Rain,Light Rain,260,2013-10-14 00:50:00
2:20 AM,48.2,46.4,93,29.77,6.2,West,15.0,-,N/A,,Scattered Clouds,270,2013-10-14 01:20:00
2:50 AM,48.2,46.4,93,29.77,6.2,West,13.8,-,N/A,,Unknown,260,2013-10-14 01:50:00
3:20 AM,48.2,46.4,93,29.74,6.2,West,13.8,-,N/A,,Partly Cloudy,260,2013-10-14 02:20:00
3:50 AM,48,46,88,29.75,7,West,12.7,,,Rain,Rain,260,2013-10-14 02:50:00
3:50 AM,48.2,46.4,93,29.74,6.2,West,12.7,-,N/A,,Mostly Cloudy,260,2013-10-14 02:50:00
4:20 AM,48.2,46.4,93,29.74,6.2,West,13.8,-,N/A,,Mostly Cloudy,260,2013-10-14 03:20:00
4:50 AM,48.2,46.4,93,29.74,6.2,West,13.8,-,N/A,Rain,Light Rain,260,2013-10-14 03:50:00
5:20 AM,48.2,46.4,93,29.74,6.2,WSW,13.8,-,N/A,Rain,Light Rain,250,2013-10-14 04:20:00
5:50 AM,48.2,46.4,93,29.74,4.3,West,13.8,-,N/A,,Mostly Cloudy,260,2013-10-14 04:50:00
6:20 AM,48.2,46.4,93,29.74,5.6,West,12.7,-,N/A,,Mostly Cloudy,270,2013-10-14 05:20:00
6:50 AM,48,46,90,29.75,7,West,12.7,,,Rain,Drizzle,260,2013-10-14 05:50:00
6:50 AM,48.2,46.4,93,29.74,5.0,West,12.7,-,N/A,,Mostly Cloudy,270,2013-10-14 05:50:00
7:20 AM,48.2,46.4,93,29.74,6.2,West,12.7,-,N/A,,Mostly Cloudy,260,2013-10-14 06:20:00
7:50 AM,48.2,46.4,93,29.74,6.2,WSW,11.5,-,N/A,,Mostly Cloudy,250,2013-10-14 06:50:00
8:20 AM,48.2,46.4,93,29.77,6.2,West,11.5,-,N/A,,Mostly Cloudy,260,2013-10-14 07:20:00
8:50 AM,48.2,46.4,93,29.77,6.2,West,11.5,-,N/A,,Mostly Cloudy,270,2013-10-14 07:50:00
9:20 AM,48.2,48.2,100,29.77,6.2,West,11.5,-,N/A,,Mostly Cloudy,270,2013-10-14 08:20:00
9:50 AM,49,46,87,29.77,12,SW,10.4,,,Rain,Light Rain Showers,230,2013-10-14 08:50:00
9:50 AM,50.0,48.2,94,29.77,6.2,WSW,10.4,-,N/A,Rain,Light Rain,240,2013-10-14 08:50:00
10:20 AM,50.0,46.4,87,29.77,6.2,SW,12.7,-,N/A,,Mostly Cloudy,230,2013-10-14 09:20:00
10:50 AM,50.0,48.2,94,29.77,6.2,WSW,11.5,-,N/A,,Mostly Cloudy,250,2013-10-14 09:50:00
11:20 AM,50.0,48.2,94,29.77,6.2,WSW,12.7,-,N/A,,Scattered Clouds,240,2013-10-14 10:20:00
11:50 AM,50.0,48.2,94,29.77,6.2,WSW,11.5,-,N/A,Rain,Light Rain Showers,240,2013-10-14 10:50:00
12:20 PM,50.0,48.2,94,29.77,6.2,WSW,12.7,-,N/A,,Mostly Cloudy,250,2013-10-14 11:20:00
12:50 PM,52,46,75,29.76,19,SW,12.7,,,Rain,Rain,230,2013-10-14 11:50:00
12:50 PM,51.8,48.2,88,29.77,6.2,WSW,12.7,-,N/A,,Scattered Clouds,240,2013-10-14 11:50:00
1:20 PM,51.8,48.2,88,29.74,6.2,WSW,12.7,-,N/A,,Mostly Cloudy,240,2013-10-14 12:20:00
1:50 PM,51.8,48.2,88,29.74,6.2,WSW,12.7,-,N/A,,Mostly Cloudy,240,2013-10-14 12:50:00
2:20 PM,51.8,48.2,88,29.74,6.2,WSW,12.7,-,N/A,,Mostly Cloudy,240,2013-10-14 13:20:00
2:50 PM,51.8,48.2,88,29.74,6.2,SW,12.7,-,N/A,Rain,Light Rain,230,2013-10-14 13:50:00
3:20 PM,51.8,48.2,88,29.74,6.2,SSW,8.1,-,N/A,,Mostly Cloudy,210,2013-10-14 14:20:00
3:50 PM,53,48,76,29.73,19,SSW,11.5,,,Rain,Rain,210,2013-10-14 14:50:00
3:50 PM,53.6,50.0,88,29.71,6.2,SW,11.5,-,N/A,,Scattered Clouds,220,2013-10-14 14:50:00
4:20 PM,51.8,48.2,88,29.71,6.2,SW,10.4,-,N/A,,Mostly Cloudy,220,2013-10-14 15:20:00
4:50 PM,51.8,48.2,88,29.71,6.2,WSW,11.5,-,N/A,,Mostly Cloudy,240,2013-10-14 15:50:00
5:20 PM,50.0,46.4,87,29.71,6.2,WSW,12.7,-,N/A,,Partly Cloudy,240,2013-10-14 16:20:00
5:50 PM,48.2,46.4,93,29.71,6.2,WSW,11.5,-,N/A,,Mostly Cloudy,240,2013-10-14 16:50:00
6:20 PM,48.2,46.4,93,29.71,6.2,SW,9.2,-,N/A,,Mostly Cloudy,230,2013-10-14 17:20:00
6:50 PM,49,46,87,29.73,12,SW,9.2,,,Rain,Light Rain Showers,220,2013-10-14 17:50:00
6:50 PM,48.2,48.2,100,29.71,6.2,SW,8.1,-,N/A,,Mostly Cloudy,220,2013-10-14 17:50:00
7:20 PM,48.2,48.2,100,29.71,6.2,SW,10.4,-,N/A,Rain,Light Rain,230,2013-10-14 18:20:00
7:50 PM,48.2,48.2,100,29.71,6.2,SW,8.1,-,N/A,,Scattered Clouds,230,2013-10-14 18:50:00
8:20 PM,48.2,48.2,100,29.71,6.2,WSW,11.5,-,N/A,,Scattered Clouds,240,2013-10-14 19:20:00
8:50 PM,48.2,48.2,100,29.71,6.2,WSW,11.5,-,N/A,Rain,Light Rain,250,2013-10-14 19:50:00
9:20 PM,48.2,48.2,100,29.74,5.6,West,10.4,-,N/A,Rain,Light Rain,270,2013-10-14 20:20:00
9:50 PM,49,47,92,29.74,8,West,8.1,,,Rain,Light Rain Showers,280,2013-10-14 20:50:00
9:50 PM,48.2,48.2,100,29.74,4.3,West,9.2,-,N/A,Rain,Light Rain,280,2013-10-14 20:50:00
10:20 PM,48.2,48.2,100,29.74,5.6,WNW,6.9,-,N/A,Rain,Light Rain Showers,290,2013-10-14 21:20:00
10:50 PM,48.2,48.2,100,29.74,6.2,WNW,8.1,-,N/A,,Scattered Clouds,290,2013-10-14 21:50:00
11:20 PM,50.0,48.2,94,29.74,6.2,WNW,10.4,-,N/A,,Scattered Clouds,300,2013-10-14 22:20:00
11:50 PM,48.2,48.2,100,29.74,6.2,NW,6.9,-,N/A,,Scattered Clouds,310,2013-10-14 22:50:00